COSMOS 1375 DEB

Satellite information

Favourite Embed

Satellite Type and Status

DEBRISIN ORBIT

Key statistics

Satellite COSMOS 1375 DEB at a glance.

Uptime

15852

Days in orbit

Revolutions

≈ 13.8

Per day

Orbit

LEO

Low Earth Orbit

Inclination

65.8

Latest

Satellite identification and parameters

Extended collection of information and parameters for COSMOS 1375 DEB.

Object identification

Identified? True

Debris? True

Object name: COSMOS 1375 DEB

International designator: 1982-055AY

Object number (NORAD): 17806

Object ID (CCSDS): 17806

Country: COMMONWEALTH OF INDEPENDENT STATES (CIS)

Current information (Y/N): Y

RCS size: SMALL

Orbital parameters

Period: 104.29 minutes

Inclination: 65.8335 deg

SMA: 7339.298 km

Apoapsis: 1010.603 km

Periapsis: 911.722 km

RAAN: 293.7845 deg

Eccentricy: 0.00673636

Argument of periapsis: 277.1576 deg

Mean anomaly: 192.4378 deg

Mean motion: 13.80768968 rev/day

Mean motion (dot): 0.0000002 rev/day2

B* drag term: 0.000095111868 1/REarth

Two-line elements (TLE)

Creation date: Oct. 28, 2025, 7:11 p.m.

Reference frame: TEME

Reference center: EARTH

Epoch: Oct. 28, 2025, 8:27 a.m. UTC

TLE line 0: 0 COSMOS 1375 DEB

TLE line 1: 1 17806U 82055AY 25301.35217197 .00000020 00000-0 95112-4 0 9992

TLE line 2: 2 17806 65.8335 293.7845 0067364 277.1576 192.4378 13.80768968 14682

Live tracking on map

Real-time ground track for satellite COSMOS 1375 DEB.

In-orbit conjunctions

A list of the most updated potential collisions computed for object COSMOS 1375 DEB.

Target Orbit TCA Probability of collision Miss distance Type
SL-8 R/B LEO 2025-05-15 21:56:35 0.000109568 81.0 (m) ROCKET BODY
CZ-6A DEB SSO 2025-02-15 23:01:00 0.0003866013 132.0 (m) DEBRIS

Associated space launch

ASAT target satellite

COSMOS 1375 DEB was lifted into orbit during the mission ‘Kosmos-3M | DS-P1-M 16’, on board a Kosmos-3M space rocket.

The launch took place on June 6, 1982, 5:10 p.m. from 132/2.

For more information about the launch, click the button.

Launch to space Kosmos-3M | DS-P1-M 16
Kosmos-3M | DS-P1-M 16

Agency: N/A

Status: Launch Successful

Launch date: June 6, 1982, 5:10 p.m. UTC

Rocket: Kosmos-3M

Launch pad: 132/2

Location: Plesetsk Cosmodrome, Russian Federation

...

Latest news about this satellite

There are no fresh news available about this satellite. Check back as we update our databases every day.


Newsletter sign-up

Weekly statistics, charts and insights to help you stay on top of the space industry.